Content
SEND FEEDBACK

Daily
Averages
Monthly
Summary
United States of America

BROOKLYN, NEW YORK


Home > North America > United States > New York
Elevation: 2 feet     Latitude: 40 36N     Longitude: 073 59W

WEATHER
 
SELECT A DAY
Number of Records: 185,459;   Date Range: 1/1/95 - 8/12/14
 
SHARE

PRINT THIS DATA

[ ← Previous Day ]
WEATHER ALMANAC - APRIL 27, 2013
[ Next Day → ]
[ °C ]   °F
Weather ElementAverageHighLow
Temperature54.7 °F64.9 °F (12:51 pm)46 °F (4:51 am)
Dewpoint31.3 °F42.1 °F (11:51 pm)17.1 °F (12:51 pm)
Humidity43.9 %74 % (11:51 pm)16 % (12:51 pm)
Barometer30.37 in30.43 in (6:51 am)30.32 in (3:51 pm)
Wind Speed9.1 mph16.1 mph (4:51 pm)
Wind Gust16.1 mph (10:51 am)
Weather ElementAverage
Visibility10 mi
Wind DirectionS (178.3 °)

Weather ElementTotal
Precipitation---
Heating Degree Days9.6 (Base 65)
Growing Degree Days5.5 (Base 50)
Averaged from 23 records on April 27, 2013
WEATHER CONDITIONS BREAKOUT
WIND DIRECTION BREAKOUT
WEATHER BY HOUR - APRIL 27, 2013
[ °C ]   °F
Local TimeTemperatureDewpointHumidityBarometerVisibilityWind DirectionWind SpeedGust SpeedPrecipitationEventsConditions
1:51 AM51.1 °F28.9 °F43 %30.42 in10.0 miNNE (30°)10.4 mphPartly Cloudy
2:51 AM48.0 °F30.0 °F50 %30.41 in10.0 miNNE (20°)5.8 mphPartly Cloudy
3:51 AM46.9 °F30.0 °F52 %30.41 in10.0 miNorth (360°)5.8 mphPartly Cloudy
4:51 AM46.0 °F28.9 °F51 %30.41 in10.0 miNorth (360°)6.9 mphClear
5:51 AM46.9 °F28.0 °F48 %30.41 in10.0 miNorth (10°)8.1 mphPartly Cloudy
6:51 AM48.0 °F30.0 °F50 %30.43 in10.0 miNorth (360°)6.9 mphPartly Cloudy
7:51 AM52.0 °F27.0 °F38 %30.43 in10.0 miNNE (20°)9.2 mphScattered Clouds
8:51 AM55.0 °F28.0 °F35 %30.43 in10.0 miNorth (350°)10.4 mphMostly Cloudy
9:51 AM59.0 °F27.0 °F29 %30.43 in10.0 miNorth (10°)8.1 mphMostly Cloudy
10:51 AM61.0 °F27.0 °F27 %30.43 in10.0 miNNW (340°)6.9 mph16.1 mphScattered Clouds
11:51 AM64.0 °F23.0 °F21 %30.41 in10.0 miNorth (10°)10.4 mph16.1 mphPartly Cloudy
12:51 PM64.9 °F17.1 °F16 %30.38 in10.0 miNorth (350°)9.2 mphPartly Cloudy
1:51 PM64.0 °F34.0 °F33 %30.36 in10.0 miSouth (170°)13.8 mphPartly Cloudy
2:51 PM63.0 °F30.0 °F29 %30.35 in10.0 miSouth (190°)12.7 mphPartly Cloudy
3:51 PM64.0 °F26.1 °F24 %30.32 in10.0 miSouth (170°)10.4 mphClear
4:51 PM60.1 °F36.0 °F41 %30.32 in10.0 miSouth (180°)16.1 mphPartly Cloudy
5:51 PM57.9 °F33.1 °F39 %30.32 in10.0 miSouth (170°)12.7 mphPartly Cloudy
6:51 PM54.0 °F37.9 °F55 %30.32 in10.0 miSouth (180°)13.8 mphPartly Cloudy
7:51 PM52.0 °F37.0 °F57 %30.32 in10.0 miSouth (170°)10.4 mphScattered Clouds
8:51 PM51.1 °F37.9 °F61 %30.33 in10.0 miSouth (180°)8.1 mphPartly Cloudy
9:51 PM50.0 °F39.0 °F66 %30.33 in10.0 miSouth (180°)5.8 mphPartly Cloudy
10:51 PM50.0 °F41.0 °F71 %30.33 in10.0 miSSE (160°)4.6 mphPartly Cloudy
11:51 PM50.0 °F42.1 °F74 %30.32 in10.0 miSE (130°)3.5 mphScattered Clouds
Hourly data recorded from KJFK, located miles away from Brooklyn, New York







STORIES FROM OUR PARTNERS